Home   Weather   City of Bartlesville   Past weeks
Flag for USA

Past Weather in City of Bartlesville, Oklahoma, USA — Yesterday and Last 2 Weeks

Now
78 °F

Passing clouds.


Feels Like: 81 °F
Forecast: 93 / 75 °F
Wind: 6 mph from East

Location: Tulsa International Airport
Current Time: Aug 14, 2020 at 5:55:30 am
Latest Report: Aug 14, 2020 at 4:53 am
Visibility: 10 mi
Pressure29.82 "Hg
Humidity: 90%
Dew Point: 75 °F
Location of City of BartlesvilleLocation

Past Weather in City of Bartlesville — Graph

°F

City of Bartlesville Temperature Yesterday

Maximum temperature yesterday: 89 °F (at 3:53 pm)
Minimum temperature yesterday: 71 °F (at 7:53 am)
Average temperature yesterday: 80 °F

High & Low Weather Summary for the Past Weeks

 TemperatureHumidityPressure
High96 °F (Aug 9, 3:53 pm)100% (Jul 30, 6:27 am)30.10 "Hg (Jul 30, 6:27 am)
Low59 °F (Aug 4, 5:53 am)38% (Aug 3, 5:53 pm)29.77 "Hg (Jul 30, 4:53 am)
Average79 °F73%29.94 "Hg
* Reported Jul 30 3:53 am — Aug 14 3:53 am, City of Bartlesville. Weather by CustomWeather, © 2020

Note: Actual official high and low records may vary slightly from our data, if they occured in-between our weather recording intervals... More about our weather records

City of Bartlesville Weather History for the Previous 24 Hours

Scroll right to see more
 ConditionsComfort  
Time TempWeatherWind HumidityBarometerVisibility
3:53 am
Fri, Aug 14
78 °FPassing clouds.No wind90%29.83 "Hg10 mi
2:53 am79 °FPassing clouds.No wind88%29.85 "Hg10 mi
1:53 am79 °FPassing clouds.3 mph88%29.87 "Hg10 mi
12:53 am80 °FPassing clouds.5 mph85%29.88 "Hg10 mi
11:53 pm
Thu, Aug 13
80 °FPassing clouds.5 mph81%29.88 "Hg10 mi
10:53 pm80 °FPassing clouds.6 mph85%29.88 "Hg10 mi
9:53 pm81 °FPassing clouds.7 mph82%29.88 "Hg10 mi
8:53 pm82 °FPassing clouds.6 mph77%29.88 "Hg10 mi
7:53 pm85 °FPassing clouds.8 mph72%29.85 "Hg10 mi
6:53 pm87 °FPassing clouds.10 mph67%29.85 "Hg10 mi
5:53 pm89 °FPassing clouds.8 mph63%29.86 "Hg10 mi
4:53 pm89 °FPassing clouds.8 mph61%29.85 "Hg10 mi
3:53 pm89 °FPassing clouds.10 mph63%29.84 "Hg10 mi
2:53 pm88 °FScattered clouds.6 mph63%29.86 "Hg10 mi
1:53 pm86 °FPassing clouds.8 mph63%29.87 "Hg10 mi
12:53 pm82 °FPassing clouds.3 mph72%29.92 "Hg10 mi
11:53 am80 °FScattered clouds.6 mph74%29.95 "Hg10 mi
10:53 am77 °FPartly sunny.10 mph79%29.97 "Hg10 mi
9:53 am75 °FPartly sunny.8 mph85%29.91 "Hg10 mi
8:53 am72 °FBroken clouds.9 mph100%29.90 "Hg10 mi
7:53 am71 °FThunderstorms. Broken clouds.13 mph100%29.91 "Hg10 mi
5:53 am72 °FThunderstorms. Overcast.No windN/A29.98 "Hg10 mi
Weather by CustomWeather, © 2020

See weather overview